Location: Austin
(30.3000°N, 97.7500°W)
Time: 23:32:06
(UTC-05:00)

Delta 2 Rocket - Pass Details

Date: 06 May 2026
Orbit: 890 x 1676 km, 26.4° (Epoch: 13 May)

Event Time Altitude Azimuth Distance (km) Brightness Sun altitude
Rises 21:22:35 0° 260° (W) 3,723 7.9 -14.6°
Reaches altitude 10° 21:25:05 10° 258° (WSW) 2,856 7.1 -15.0°
Maximum altitude 21:32:03 67° 177° (S) 1,283 4.4 -16.3°
Enters shadow 21:37:49 22° 100° (E) 2,563 5.6 -17.4°
